N920LG MDPP-TJBQ

Flight info

Callsign N920LG
Flight time N/A
Altitude 9000
Route POKIL1 PIXES M348 KATOK DCT MEEGL
Aircraft BE36/L-BDFGLORY/S

Departure

Time 2026-05-03 21:41
Airport Gregorio Luperon International Airport (MDPP)

Arrival

Time N/A
Airport Rafael Hernández International Airport (TJBQ)
Time Latitude Longitude Altitude Speed Heading
2026-05-03 21:20 19.75654 -70.56275 29 ft 0 kts 162°
2026-05-03 21:24 19.75652 -70.56275 29 ft 3 kts 177°
2026-05-03 21:24 19.75684 -70.56288 29 ft 10 kts
2026-05-03 21:24 19.75702 -70.56329 29 ft 12 kts 265°
2026-05-03 21:25 19.75696 -70.56450 29 ft 18 kts 253°
2026-05-03 21:25 19.75648 -70.56615 29 ft 29 kts 253°
2026-05-03 21:25 19.75578 -70.56845 29 ft 37 kts 252°
2026-05-03 21:25 19.75539 -70.57037 28 ft 6 kts 301°
2026-05-03 21:26 19.75558 -70.57070 28 ft 0 kts 306°
2026-05-03 21:26 19.75585 -70.57102 28 ft 13 kts 313°
2026-05-03 21:26 19.75649 -70.57173 28 ft 1 kts 315°
2026-05-03 21:29 19.75684 -70.57214 27 ft 15 kts 305°
2026-05-03 21:29 19.75682 -70.57348 27 ft 23 kts 246°
2026-05-03 21:29 19.75623 -70.57546 26 ft 33 kts 253°
2026-05-03 21:30 19.75549 -70.57811 30 ft 41 kts 253°
2026-05-03 21:30 19.75494 -70.58068 30 ft 18 kts 261°
2026-05-03 21:30 19.75476 -70.58073 31 ft 0 kts 74°
2026-05-03 21:31 19.75489 -70.58074 30 ft 0 kts 80°
2026-05-03 21:32 19.75548 -70.57833 30 ft 64 kts 76°
2026-05-03 21:32 19.75489 -70.58074 30 ft 0 kts 80°
2026-05-03 21:32 19.75489 -70.58071 31 ft 7 kts 79°
2026-05-03 21:33 19.75489 -70.58074 31 ft 0 kts 80°
2026-05-03 21:33 19.75500 -70.57997 30 ft 41 kts 78°
2026-05-03 21:33 19.75489 -70.58074 30 ft 0 kts 80°
2026-05-03 21:34 19.75490 -70.58067 30 ft 11 kts 77°
2026-05-03 21:34 19.75550 -70.57802 30 ft 59 kts 73°
2026-05-03 21:34 19.75489 -70.58074 30 ft 0 kts 80°
2026-05-03 21:35 19.75498 -70.58026 30 ft 32 kts 79°
2026-05-03 21:36 19.75489 -70.58074 30 ft 0 kts 80°
2026-05-03 21:36 19.75489 -70.58073 31 ft 1 kts 80°
2026-05-03 21:36 19.75491 -70.58066 30 ft 4 kts 69°
2026-05-03 21:37 19.75547 -70.57855 30 ft 63 kts 77°
2026-05-03 21:37 19.75489 -70.58074 30 ft 0 kts 80°
2026-05-03 21:38 19.75491 -70.58052 30 ft 15 kts 87°
2026-05-03 21:38 19.75549 -70.57824 30 ft 49 kts 72°
2026-05-03 21:38 19.75489 -70.58074 31 ft 0 kts 80°
2026-05-03 21:39 19.75490 -70.58065 30 ft 4 kts 79°
2026-05-03 21:39 19.75514 -70.57965 30 ft 29 kts 74°
2026-05-03 21:39 19.75609 -70.57624 29 ft 67 kts 82°
2026-05-03 21:40 19.75763 -70.57074 103 ft 91 kts 81°
2026-05-03 21:40 19.75964 -70.56358 311 ft 112 kts 78°
2026-05-03 21:40 19.76223 -70.55510 452 ft 128 kts 76°
2026-05-03 21:40 19.76512 -70.54576 586 ft 136 kts 76°
2026-05-03 21:41 19.76835 -70.53612 707 ft 140 kts 75°
2026-05-03 21:41 19.77184 -70.52657 836 ft 141 kts 74°
2026-05-03 21:41 19.77518 -70.51673 958 ft 142 kts 75°
2026-05-03 21:41 19.77851 -70.50678 1075 ft 144 kts 76°
2026-05-03 21:42 19.78177 -70.49660 1245 ft 147 kts 75°
2026-05-03 21:42 19.78505 -70.48626 1390 ft 148 kts 76°
2026-05-03 21:42 19.78854 -70.47608 1504 ft 146 kts 75°
2026-05-03 21:42 19.79196 -70.46595 1642 ft 146 kts 75°
2026-05-03 21:43 19.79481 -70.45562 1788 ft 144 kts 90°
2026-05-03 21:43 19.79150 -70.44615 1939 ft 139 kts 135°
2026-05-03 21:43 19.78311 -70.44131 2097 ft 138 kts 157°
2026-05-03 21:43 19.77448 -70.43701 2243 ft 137 kts 152°
2026-05-03 21:44 19.76617 -70.43222 2382 ft 135 kts 151°
2026-05-03 21:44 19.75793 -70.42740 2555 ft 136 kts 152°
2026-05-03 21:44 19.74968 -70.42255 2713 ft 135 kts 152°
2026-05-03 21:44 19.74147 -70.41765 2875 ft 136 kts 152°
2026-05-03 21:45 19.73327 -70.41275 3018 ft 135 kts 152°
2026-05-03 21:45 19.72515 -70.40781 3159 ft 134 kts 152°
2026-05-03 21:45 19.71712 -70.40286 3289 ft 133 kts 152°
2026-05-03 21:45 19.70927 -70.39798 3426 ft 132 kts 151°
2026-05-03 21:46 19.70142 -70.39302 3552 ft 130 kts 151°
2026-05-03 21:46 19.69362 -70.38819 3678 ft 129 kts 150°
2026-05-03 21:46 19.68726 -70.38156 3838 ft 132 kts 120°
2026-05-03 21:46 19.68414 -70.37225 3999 ft 135 kts 111°
2026-05-03 21:47 19.68151 -70.36267 4146 ft 135 kts 111°
2026-05-03 21:47 19.67876 -70.35309 4301 ft 136 kts 111°
2026-05-03 21:47 19.67584 -70.34353 4443 ft 136 kts 111°
2026-05-03 21:47 19.67276 -70.33407 4599 ft 135 kts 113°
2026-05-03 21:48 19.66962 -70.32476 4738 ft 136 kts 115°
2026-05-03 21:48 19.66637 -70.31532 4878 ft 136 kts 115°
2026-05-03 21:48 19.66315 -70.30595 5012 ft 135 kts 114°
2026-05-03 21:48 19.65994 -70.29659 5147 ft 135 kts 113°
2026-05-03 21:49 19.65675 -70.28728 5294 ft 134 kts 113°
2026-05-03 21:49 19.65356 -70.27797 5448 ft 135 kts 114°
2026-05-03 21:49 19.65039 -70.26867 5588 ft 133 kts 114°
2026-05-03 21:49 19.64719 -70.25943 5702 ft 134 kts 113°
2026-05-03 21:50 19.64397 -70.25005 5795 ft 136 kts 115°
2026-05-03 21:50 19.64073 -70.24055 5901 ft 137 kts 114°
2026-05-03 21:50 19.63746 -70.23099 6013 ft 138 kts 113°
2026-05-03 21:50 19.63418 -70.22141 6098 ft 139 kts 113°
2026-05-03 21:51 19.63086 -70.21175 6163 ft 140 kts 115°
2026-05-03 21:51 19.62752 -70.20202 6219 ft 140 kts 112°
2026-05-03 21:51 19.62416 -70.19229 6292 ft 141 kts 111°
2026-05-03 21:51 19.62082 -70.18252 6362 ft 141 kts 111°
2026-05-03 21:52 19.61748 -70.17276 6431 ft 141 kts 111°
2026-05-03 21:52 19.61414 -70.16302 6495 ft 140 kts 111°
2026-05-03 21:52 19.61080 -70.15330 6568 ft 140 kts 111°
2026-05-03 21:52 19.60751 -70.14374 6630 ft 140 kts 111°
2026-05-03 21:53 19.60418 -70.13400 6678 ft 141 kts 111°
2026-05-03 21:53 19.60078 -70.12410 6722 ft 141 kts 111°
2026-05-03 21:53 19.59746 -70.11443 6771 ft 141 kts 111°
2026-05-03 21:53 19.59408 -70.10460 6817 ft 141 kts 111°
2026-05-03 21:54 19.59071 -70.09481 6863 ft 141 kts 112°
2026-05-03 21:54 19.58742 -70.08521 6914 ft 141 kts 112°
2026-05-03 21:54 19.58403 -70.07542 6966 ft 141 kts 111°
2026-05-03 21:54 19.58069 -70.06567 7012 ft 140 kts 111°
2026-05-03 21:55 19.57736 -70.05595 7056 ft 140 kts 111°
2026-05-03 21:55 19.57401 -70.04627 7101 ft 140 kts 112°
2026-05-03 21:55 19.57068 -70.03660 7148 ft 139 kts 112°
2026-05-03 21:55 19.56739 -70.02701 7189 ft 138 kts 111°
2026-05-03 21:56 19.56408 -70.01739 7231 ft 139 kts 112°
2026-05-03 21:56 19.56075 -70.00776 7280 ft 139 kts 112°
2026-05-03 21:56 19.55743 -69.99810 7325 ft 139 kts 111°
2026-05-03 21:56 19.55414 -69.98855 7370 ft 139 kts 111°
2026-05-03 21:57 19.55083 -69.97890 7416 ft 139 kts 111°
2026-05-03 21:57 19.54753 -69.96933 7458 ft 139 kts 111°
2026-05-03 21:57 19.54420 -69.95968 7517 ft 139 kts 112°
2026-05-03 21:57 19.54089 -69.95008 7567 ft 139 kts 111°
2026-05-03 21:58 19.53759 -69.94051 7617 ft 138 kts 112°
2026-05-03 21:58 19.53430 -69.93097 7670 ft 137 kts 112°
2026-05-03 21:58 19.53208 -69.92455 7703 ft 137 kts 111°
2026-05-03 21:58 19.52882 -69.91508 7758 ft 136 kts 112°
2026-05-03 21:59 19.52559 -69.90570 7807 ft 135 kts 112°
2026-05-03 21:59 19.52241 -69.89654 7854 ft 133 kts 112°
2026-05-03 21:59 19.51915 -69.88738 7908 ft 132 kts 113°
2026-05-03 21:59 19.51593 -69.87836 7951 ft 130 kts 113°
2026-05-03 22:00 19.51276 -69.86950 7993 ft 127 kts 114°
2026-05-03 22:00 19.50967 -69.86085 8040 ft 124 kts 112°
2026-05-03 22:00 19.50666 -69.85242 8087 ft 121 kts 112°
2026-05-03 22:00 19.50369 -69.84422 8129 ft 118 kts 112°
2026-05-03 22:01 19.50084 -69.83625 8173 ft 115 kts 112°
2026-05-03 22:01 19.49806 -69.82843 8213 ft 112 kts 112°
2026-05-03 22:01 19.49534 -69.82082 8261 ft 109 kts 113°
2026-05-03 22:01 19.49272 -69.81346 8310 ft 105 kts 113°
2026-05-03 22:02 19.49017 -69.80634 8360 ft 101 kts 114°
2026-05-03 22:02 19.48774 -69.79947 8406 ft 97 kts 114°
2026-05-03 22:02 19.48540 -69.79293 8440 ft 92 kts 114°
2026-05-03 22:02 19.48319 -69.78674 8470 ft 87 kts 114°
2026-05-03 22:03 19.48109 -69.78097 8504 ft 81 kts 114°
2026-05-03 22:03 19.47917 -69.77564 8478 ft 79 kts 113°
2026-05-03 22:03 19.47701 -69.76954 8311 ft 99 kts 112°
2026-05-03 22:03 19.47533 -69.76228 8204 ft 108 kts 95°
2026-05-03 22:04 19.47475 -69.75313 8014 ft 126 kts 105°
2026-05-03 22:04 19.47188 -69.74459 8056 ft 121 kts 115°
2026-05-03 22:04 19.46840 -69.73662 8086 ft 118 kts 117°
2026-05-03 22:04 19.46478 -69.72899 8138 ft 115 kts 119°
2026-05-03 22:05 19.46120 -69.72151 8170 ft 113 kts 118°
2026-05-03 22:05 19.45794 -69.71412 8189 ft 112 kts 116°
2026-05-03 22:05 19.45477 -69.70638 8207 ft 119 kts 114°
2026-05-03 22:05 19.45152 -69.69797 8245 ft 126 kts 114°
2026-05-03 22:06 19.44824 -69.68926 8295 ft 129 kts 113°
2026-05-03 22:06 19.44492 -69.68035 8348 ft 132 kts 113°
2026-05-03 22:06 19.44158 -69.67122 8396 ft 135 kts 113°
2026-05-03 22:06 19.43816 -69.66180 8444 ft 139 kts 112°
2026-05-03 22:07 19.43465 -69.65214 8494 ft 142 kts 112°
2026-05-03 22:07 19.43107 -69.64228 8547 ft 145 kts 112°
2026-05-03 22:07 19.42742 -69.63223 8601 ft 147 kts 112°
2026-05-03 22:07 19.42375 -69.62209 8653 ft 148 kts 112°
2026-05-03 22:08 19.42013 -69.61201 8695 ft 148 kts 112°
2026-05-03 22:08 19.41647 -69.60180 8739 ft 148 kts 113°
2026-05-03 22:08 19.41275 -69.59146 8792 ft 148 kts 113°
2026-05-03 22:08 19.40910 -69.58139 8836 ft 148 kts 112°
2026-05-03 22:09 19.40541 -69.57121 8877 ft 148 kts 113°
2026-05-03 22:09 19.40174 -69.56104 8931 ft 148 kts 112°
2026-05-03 22:09 19.39806 -69.55085 8977 ft 148 kts 112°
2026-05-03 22:10 19.39056 -69.53019 8992 ft 152 kts 113°
2026-05-03 22:10 19.38674 -69.51964 8999 ft 154 kts 114°
2026-05-03 22:10 19.38288 -69.50901 8996 ft 155 kts 113°
2026-05-03 22:10 19.37902 -69.49835 8995 ft 156 kts 112°
2026-05-03 22:11 19.37520 -69.48775 8994 ft 156 kts 113°
2026-05-03 22:11 19.37131 -69.47702 8996 ft 156 kts 113°
2026-05-03 22:11 19.36740 -69.46622 8993 ft 157 kts 112°
2026-05-03 22:11 19.36347 -69.45543 8994 ft 157 kts 113°
2026-05-03 22:12 19.35957 -69.44463 8994 ft 157 kts 113°
2026-05-03 22:12 19.35564 -69.43384 8993 ft 156 kts 114°
2026-05-03 22:12 19.35174 -69.42311 8994 ft 156 kts 113°
2026-05-03 22:12 19.34783 -69.41234 8993 ft 157 kts 113°
2026-05-03 22:13 19.34390 -69.40156 8997 ft 157 kts 112°
2026-05-03 22:13 19.34001 -69.39080 8998 ft 157 kts 112°
2026-05-03 22:13 19.33611 -69.38010 8998 ft 158 kts 112°
2026-05-03 22:13 19.33213 -69.36916 9013 ft 157 kts 112°
2026-05-03 22:14 19.32826 -69.35845 9019 ft 157 kts 113°
2026-05-03 22:14 19.32430 -69.34750 9016 ft 157 kts 113°
2026-05-03 22:14 19.32035 -69.33668 9014 ft 157 kts 112°
2026-05-03 22:14 19.31648 -69.32602 9010 ft 157 kts 113°
2026-05-03 22:15 19.31257 -69.31526 9009 ft 157 kts 113°
2026-05-03 22:15 19.30867 -69.30454 8993 ft 155 kts 112°
2026-05-03 22:15 19.30476 -69.29385 9012 ft 156 kts 114°
2026-05-03 22:15 19.30082 -69.28311 9011 ft 157 kts 114°
2026-05-03 22:16 19.29690 -69.27234 9015 ft 157 kts 114°
2026-05-03 22:16 19.29299 -69.26157 9016 ft 157 kts 113°
2026-05-03 22:16 19.28907 -69.25078 9015 ft 157 kts 113°
2026-05-03 22:16 19.28515 -69.23998 9015 ft 157 kts 114°
2026-05-03 22:17 19.28121 -69.22919 9010 ft 157 kts 113°
2026-05-03 22:17 19.27726 -69.21837 9017 ft 158 kts 112°
2026-05-03 22:17 19.27337 -69.20765 9017 ft 158 kts 113°
2026-05-03 22:17 19.26936 -69.19670 9023 ft 158 kts 113°
2026-05-03 22:18 19.26542 -69.18585 9018 ft 157 kts 113°
2026-05-03 22:18 19.26151 -69.17517 9030 ft 158 kts 112°
2026-05-03 22:18 19.25755 -69.16429 9019 ft 159 kts 112°
2026-05-03 22:18 19.25358 -69.15344 9019 ft 158 kts 112°
2026-05-03 22:19 19.24960 -69.14254 9021 ft 159 kts 113°
2026-05-03 22:19 19.24562 -69.13163 9019 ft 159 kts 113°
2026-05-03 22:19 19.24164 -69.12072 9018 ft 159 kts 113°
2026-05-03 22:19 19.23766 -69.10983 9018 ft 158 kts 113°
2026-05-03 22:20 19.23368 -69.09896 9021 ft 158 kts 113°
2026-05-03 22:20 19.22972 -69.08808 9016 ft 158 kts 113°
2026-05-03 22:20 19.22578 -69.07724 9012 ft 157 kts 113°
2026-05-03 22:20 19.22185 -69.06647 9014 ft 157 kts 112°
2026-05-03 22:21 19.21792 -69.05570 9014 ft 157 kts 112°
2026-05-03 22:21 19.21398 -69.04494 9017 ft 156 kts 113°
2026-05-03 22:21 19.21006 -69.03426 9010 ft 155 kts 111°
2026-05-03 22:21 19.20617 -69.02365 9010 ft 154 kts 112°
2026-05-03 22:22 19.20232 -69.01313 9014 ft 153 kts 112°
2026-05-03 22:22 19.19849 -69.00261 9016 ft 154 kts 112°
2026-05-03 22:22 19.19464 -68.99209 9019 ft 153 kts 112°
2026-05-03 22:22 19.19083 -68.98170 9019 ft 154 kts 112°
2026-05-03 22:23 19.18694 -68.97112 9018 ft 155 kts 112°
2026-05-03 22:23 19.18313 -68.96047 9024 ft 154 kts 111°
2026-05-03 22:23 19.17944 -68.94979 9023 ft 155 kts 111°
2026-05-03 22:23 19.17580 -68.93910 9023 ft 154 kts 111°
2026-05-03 22:24 19.17216 -68.92845 9014 ft 154 kts 111°
2026-05-03 22:24 19.16850 -68.91776 9003 ft 155 kts 111°
2026-05-03 22:24 19.16481 -68.90704 8999 ft 155 kts 111°
2026-05-03 22:24 19.16112 -68.89630 8998 ft 155 kts 112°
2026-05-03 22:25 19.15743 -68.88561 8996 ft 155 kts 112°
2026-05-03 22:25 19.15372 -68.87489 8997 ft 155 kts 111°
2026-05-03 22:25 19.15005 -68.86422 8995 ft 154 kts 111°
2026-05-03 22:25 19.14636 -68.85358 9002 ft 154 kts 111°
2026-05-03 22:26 19.14268 -68.84296 8999 ft 154 kts 111°
2026-05-03 22:26 19.13895 -68.83231 9003 ft 154 kts 111°
2026-05-03 22:26 19.13510 -68.82166 9006 ft 155 kts 111°
2026-05-03 22:26 19.13118 -68.81097 9003 ft 156 kts 112°
2026-05-03 22:27 19.12725 -68.80031 8999 ft 155 kts 112°
2026-05-03 22:27 19.12338 -68.78979 9000 ft 155 kts 112°
2026-05-03 22:27 19.11950 -68.77916 9003 ft 155 kts 112°
2026-05-03 22:27 19.11561 -68.76854 9005 ft 155 kts 112°
2026-05-03 22:28 19.11172 -68.75789 9000 ft 155 kts 112°
2026-05-03 22:28 19.10783 -68.74723 9001 ft 155 kts 112°
2026-05-03 22:28 19.10393 -68.73658 9001 ft 156 kts 112°
2026-05-03 22:28 19.10003 -68.72587 8998 ft 155 kts 112°
2026-05-03 22:29 19.09615 -68.71523 9002 ft 155 kts 112°
2026-05-03 22:29 19.09227 -68.70464 9001 ft 154 kts 112°
2026-05-03 22:29 19.08841 -68.69405 9002 ft 154 kts 112°
2026-05-03 22:29 19.08457 -68.68352 8996 ft 153 kts 111°
2026-05-03 22:30 19.08071 -68.67298 8994 ft 153 kts 112°
2026-05-03 22:30 19.07690 -68.66254 8998 ft 153 kts 112°
2026-05-03 22:30 19.07306 -68.65201 9006 ft 154 kts 112°
2026-05-03 22:30 19.06919 -68.64144 9003 ft 154 kts 112°
2026-05-03 22:31 19.06532 -68.63091 9002 ft 154 kts 112°
2026-05-03 22:31 19.06152 -68.62055 9006 ft 153 kts 112°
2026-05-03 22:31 19.05769 -68.61006 9003 ft 153 kts 112°
2026-05-03 22:31 19.05382 -68.59945 9003 ft 153 kts 111°
2026-05-03 22:32 19.04999 -68.58896 9007 ft 153 kts 112°
2026-05-03 22:32 19.04613 -68.57844 9007 ft 154 kts 112°
2026-05-03 22:32 19.04230 -68.56798 9005 ft 154 kts 112°
2026-05-03 22:32 19.03843 -68.55740 9003 ft 154 kts 112°
2026-05-03 22:33 19.03458 -68.54686 9006 ft 154 kts 112°
2026-05-03 22:33 19.03071 -68.53632 9010 ft 153 kts 112°
2026-05-03 22:33 19.02684 -68.52578 9012 ft 154 kts 112°
2026-05-03 22:33 19.02296 -68.51517 9010 ft 155 kts 111°
2026-05-03 22:34 19.01909 -68.50464 9011 ft 156 kts 112°
2026-05-03 22:34 19.01513 -68.49396 9008 ft 156 kts 111°
2026-05-03 22:34 19.01115 -68.48325 9011 ft 157 kts 112°
2026-05-03 22:34 19.00715 -68.47252 9010 ft 157 kts 112°
2026-05-03 22:35 19.00314 -68.46175 9015 ft 157 kts 112°
2026-05-03 22:35 18.99914 -68.45103 9017 ft 157 kts 112°
2026-05-03 22:35 18.99517 -68.44031 9014 ft 157 kts 112°
2026-05-03 22:35 18.99117 -68.42955 9013 ft 157 kts 112°
2026-05-03 22:36 18.98717 -68.41882 9007 ft 157 kts 112°
2026-05-03 22:36 18.98316 -68.40807 9006 ft 157 kts 112°
2026-05-03 22:36 18.97918 -68.39734 9006 ft 157 kts 112°
2026-05-03 22:36 18.97524 -68.38675 9004 ft 157 kts 112°
2026-05-03 22:37 18.97143 -68.37648 9005 ft 156 kts 112°